Location: Kondapalle
(16.6199°N, 80.5424°E)
Time: 08:20:16
(UTC+00:00)

Daily predictions for brighter satellites

Satellite Brightness Start Highest point End
(mag) Time Altitude Azimuth Time Altitude Azimuth Time Altitude Azimuth
Meteor 1-15 Rocket 4.5 13:27:56 10° N 13:33:52 88° W 13:39:45 10° S
Okean 2 3.4 13:34:27 10° S 13:38:32 66° E 13:42:37 10° NNE
Delta 2 Rocket 3.0 13:36:26 10° SW 13:39:46 49° SE 13:42:58 10° ENE
Cosmos 1470 3.0 13:36:20 10° N 13:40:06 47° E 13:43:52 10° SSE
Delta 202 3.8 13:37:18 10° WSW 13:42:26 51° SSE 13:47:55 10° E
Cosmos 1626 2.0 13:39:27 10° S 13:43:02 64° E 13:46:38 10° NNE
Cosmos 2084 4.2 13:41:47 10° S 13:45:09 26° ESE 13:48:24 10° NE
Cosmos 2278 Rocket 3.9 13:40:24 10° NW 13:45:24 33° WSW 13:50:24 10° SSW
Milstar 3 4.2 13:39:07 10° SSW 13:46:12 34° SE 13:57:34 10° E
Cosmos 1782 Rocket 3.7 13:43:01 10° N 13:47:28 83° W 13:51:56 10° S
Cosmos 1655 Rocket 4.1 13:44:30 10° N 13:50:49 85° E 13:57:11 10° S
GPS 2-14 Rocket1 3.5 13:47:12 10° W 13:51:09 49° N 13:55:06 10° ENE
H-2A R/B 3.5 13:51:25 10° NE 13:54:36 19° E 13:57:48 10° SE
ARGOS Delta rocket 4.4 13:53:54 10° NE 13:57:51 31° E 14:01:43 10° SSE
Hubble Space Telescope 2.1 13:56:14 10° NW 13:59:55 32° NNE 14:03:30 11° E
Sich 1 Rocket 4.2 13:57:42 10° NNE 14:01:58 38° E 14:05:53 12° SSE
Fermi 4.0 14:05:33 10° WNW 14:09:38 62° NNE 14:12:28 19° E
Cosmos 1378 Rocket 3.5 14:05:45 10° S 14:10:10 79° E 14:14:34 10° N
USA 305 4.3 14:07:54 10° N 14:11:11 22° NE 14:13:03 17° E
Cosmos 1943 Rocket 2.2 14:09:30 10° NNW 14:15:06 85° WSW 14:20:36 10° SSE
SJ-6B 3.5 14:13:30 22° ESE 14:15:09 33° ENE 14:18:34 10° NNE
Okean 2 Rocket 3.5 14:11:32 10° NNE 14:15:42 42° E 14:18:19 20° SE
CZ-2C R/B 2.3 14:11:56 10° WNW 14:15:44 35° SW 14:18:10 18° SSE
Cosmos 2297 3.7 14:10:56 10° N 14:16:35 67° ENE 14:21:03 16° SSE
Meteor 2-17 Rocket 4.4 14:11:47 10° N 14:17:49 75° E 14:23:51 10° S
Cosmos 1674 Rocket 3.7 14:13:32 10° S 14:17:50 76° W 14:22:10 10° N
H-2A R/B 3.4 14:17:05 23° ESE 14:18:06 25° ENE 14:21:17 10° NNE
Cosmos 2151 Rocket 4.0 14:15:56 10° NNE 14:20:13 42° E 14:22:32 23° SE
Cosmos 1238 Rocket 4.4 14:16:52 10° NNE 14:22:35 40° E 14:26:22 21° SE
GOES 2 Rocket 3.6 14:18:26 10° SW 14:22:48 46° SSE 14:26:36 18° E
Cosmos 1269 Rocket 3.9 14:19:19 10° NNW 14:24:36 83° ENE 14:28:46 17° SSE
CZ-4 R/B 2.8 14:21:01 10° S 14:24:55 39° W 14:28:49 10° NNW
Cosmos 2056 Rocket 4.0 14:20:45 10° SSE 14:25:31 38° E 14:30:26 10° NE
Cosmos 1437 Rocket 3.0 14:21:41 10° N 14:25:36 51° E 14:27:21 29° SE
Okean-O 2.7 14:23:42 22° SSE 14:26:22 58° ENE 14:30:42 10° N
Intercosmos 25 3.4 14:24:34 10° N 14:28:05 66° E 14:31:40 18° SSE
Cosmos 1553 Rocket 4.1 14:23:25 10° S 14:29:42 85° W 14:36:05 10° N
Okean O Rocket 3.9 14:28:48 10° SSW 14:32:13 22° W 14:35:39 10° NW
Cosmos 1607 4.0 14:28:26 10° SSW 14:34:44 82° WNW 14:40:58 10° NNE
Atlas Centaur 2 4.0 14:34:49 10° NW 14:38:05 16° N 14:40:57 10° NE
OBJECT-B 2.0 14:36:47 19° SSW 14:38:18 33° W 14:40:55 10° NNW
SL-14 R/B 3.9 14:35:55 10° SSW 14:39:40 53° W 14:43:26 10° N
Meteor 2-5 Rocket 4.3 14:38:57 32° ESE 14:39:47 34° E 14:44:42 10° NNE
CSL-04 Debris 4.2 14:40:04 18° S 14:44:03 79° WSW 14:49:27 10° NNW
ATLAS CENTAUR Rocket 3.9 14:39:10 10° WNW 14:44:39 24° N 14:47:42 10° NE
S3M 3.9 14:39:20 10° S 14:45:36 76° E 14:51:46 10° N
USA 267 3.1 14:40:53 10° NE 14:47:24 70° SE 14:53:53 10° SSW
Cosmos 1758 4.5 14:43:42 10° NNW 14:47:32 42° W 14:50:30 15° SSW
GPS 2-17 Rocket1 3.3 14:43:13 10° W 14:47:36 61° N 14:49:27 33° ENE
Cosmos 1908 3.6 14:46:07 10° NNW 14:49:56 62° W 14:51:21 35° SSW
SL-08 R/B 4.4 14:44:53 10° N 14:51:05 65° E 14:53:44 35° SSE
deb Chang Zheng 4 4.1 14:49:08 25° SSW 14:51:19 53° WSW 14:55:24 10° NNW
IRS-1C Rocket 4.2 14:50:08 24° S 14:53:19 71° WSW 14:58:33 10° NNW
CZ-4B R/B 3.5 14:51:51 10° NNE 14:52:25 15° NNE 14:52:25 15° NNE
USA 306 2.7 14:51:09 10° NNW 14:55:17 73° NE 14:55:26 72° ENE
COBE Rocket 4.4 14:53:24 22° S 14:56:15 54° W 15:00:47 10° NNW
Okean 1 Rocket 3.1 14:53:15 10° N 14:57:26 57° ENE 14:57:26 57° ENE
Mugunghwa Rocket 4.5 14:58:48 10° SW 15:06:41 65° SSE 15:10:47 33° E
Aurora 2 Rocket 4.0 14:59:02 10° WSW 15:08:54 74° SSE 15:12:13 38° E
Cosmos 1386 Rocket 4.5 15:03:55 10° N 15:10:13 64° E 15:11:16 56° SE
Cosmos 883 Rocket 4.4 15:07:55 38° S 15:10:34 81° E 15:16:53 10° N
Cosmos 2369 Rocket 2.3 15:09:21 10° NNW 15:14:56 73° WSW 15:16:07 55° SSW
Cosmos 1975 Rocket 3.2 15:16:42 71° NNW 15:16:42 71° NNW 15:20:45 10° N
Cosmos 1656 Rocket 3.5 15:10:48 10° NNW 15:16:20 90° ENE 15:16:53 74° SSE
Meteor 2-10 Rocket 4.0 15:11:51 10° N 15:15:39 44° NE 15:15:39 44° NE
Meteor 1-24 Rocket 3.4 15:18:36 74° ENE 15:18:36 74° ENE 15:23:37 10° N
USA 307 3.7 15:17:47 10° NW 15:20:56 48° WNW 15:20:56 48° WNW
IRAS Rocket 4.3 15:16:31 10° N 15:22:03 76° WNW 15:23:51 44° SSW
NOSS 3-4 (A) 4.4 15:15:10 10° N 15:22:28 45° ENE 15:23:29 43° E
NOSS 3-4 (C) 4.5 15:15:18 10° N 15:22:33 44° ENE 15:23:31 43° E
IRS-1A Rocket 4.3 15:26:27 69° ENE 15:26:27 69° ENE 15:32:10 10° N
H-2A R/B 4.5 15:26:54 10° NNW 15:30:18 22° WNW 15:33:43 10° SW
Cosmos 1745 Rocket 3.8 15:24:09 10° N 15:30:19 86° W 15:30:53 75° S
GPS 2-14 Rocket1 4.4 15:28:03 10° WNW 15:30:34 32° NW 15:30:34 32° NW
Cosmos 1953 3.9 15:28:41 10° NNW 15:31:41 32° WNW 15:31:41 32° WNW
GEOS 3 Rocket 3.9 15:35:30 57° N 15:35:30 57° N 15:39:40 10° NNW
ATLAS 3B CENTAUR R/B 3.7 15:23:21 10° WNW 15:38:03 79° NNE 15:41:23 52° E
Hubble Space Telescope 2.9 15:37:04 10° WNW 15:38:44 23° W 15:38:44 23° W
Resurs 01 Rocket 3.3 15:49:50 32° NW 15:49:50 32° NW 15:52:24 10° NNW
Delta 202 4.2 15:46:30 10° W 15:50:43 57° W 15:50:43 57° W
Milstar 3 4.5 16:20:18 10° WSW 16:31:14 81° NNW 16:54:10 10° ENE
ATLAS 2AS CENTAUR R/B 4.4 17:00:33 10° NNW 17:03:09 24° N 17:03:09 24° N
Cosmos 2333 Rocket 4.4 20:50:46 10° N 20:52:14 18° N 20:52:14 18° N
USA 215 3.8 20:55:22 10° NE 21:00:07 52° NE 21:00:07 52° NE
SL-16 R/B 3.9 21:13:10 29° NNW 21:13:10 29° NNW 21:15:59 10° NNW
Cosmos 2227 Rocket 3.3 21:18:11 39° NNE 21:18:11 39° NNE 21:21:38 10° NNE
ARIANE 5 R/B 4.3 21:22:05 10° NE 21:26:10 25° E 21:26:20 25° ESE
FENGYUN 3A 4.1 21:30:13 10° NNE 21:34:47 57° ENE 21:34:47 57° ENE
Cosmos 2263 Rocket 4.1 21:35:50 19° SE 21:37:31 21° ESE 21:41:39 10° NE
Cosmos 2219 3.9 21:40:32 45° NNW 21:40:32 45° NNW 21:44:32 10° N
COSMOS 2428 3.2 21:38:17 10° NNW 21:42:25 50° NNW 21:42:25 50° NNW
CZ-3C R/B 2.5 21:45:24 65° NNW 21:45:42 66° N 22:03:08 10° E
Cosmos 2297 Rocket 3.9 21:48:35 20° NW 21:48:35 20° NW 21:51:04 10° NNW
Meteor 1-27 Rocket 3.9 21:41:26 10° N 21:46:56 65° E 21:47:18 63° ESE
Milstar 3 Cent rocket 3.9 21:49:51 17° SE 21:49:51 17° SE 21:52:33 10° ESE
MOS 1-B Rocket 4.2 21:48:01 49° SSE 21:49:54 79° ENE 21:57:03 10° N
ATLAS CENTAUR R/B 3.7 21:50:42 18° ESE 21:51:16 19° ESE 21:54:27 10° ENE
BREEZE-M TANK 3.5 21:54:46 41° NE 21:54:46 41° NE 21:57:00 10° NE
Cosmos 2237 Rocket 3.9 21:50:38 10° N 21:55:35 31° ENE 22:00:30 10° SE
SL-24 R/B - RUBIN 2 4.0 21:57:34 74° NE 21:57:34 74° NE 22:01:57 10° NNE
PAYLOAD A 4.0 21:55:58 10° NNE 22:01:22 89° WNW 22:01:37 82° SSW
Cosmos 2346 Rocket 4.3 22:09:49 53° S 22:11:21 85° W 22:17:27 10° N
ATLAS 3B R/B 4.3 22:07:25 12° SSE 22:11:56 25° ESE 22:17:04 10° ENE
Centaur D-1AR AC-36 3.4 22:10:24 37° S 22:12:19 46° SE 22:36:09 10° ENE
Delta 2 Rocket 4.0 22:12:14 39° NNW 22:13:43 60° NNE 22:18:37 10° ESE
Meteor 1-5 Rocket 4.3 22:12:41 37° SSE 22:14:47 67° E 22:20:04 10° NNE
Cosmos 2219 Rocket 4.4 22:10:51 10° NW 22:11:00 11° NW 22:11:00 11° NW
NOSS 0 Rocket 3.8 22:10:36 10° NNW 22:16:45 90° E 22:22:53 10° SSE
Helios 1B rocket 4.2 22:14:42 10° NNW 22:16:29 21° NW 22:16:29 21° NW
CZ-2C R/B 2.6 22:15:15 10° N 22:19:07 47° NW 22:19:07 47° NW
METEOR-M 4.0 22:20:10 10° N 22:25:29 79° WNW 22:27:15 44° SSW
IRIDIUM 104 4.2 22:24:31 47° SSW 22:26:00 75° W 22:31:12 10° N
Cosmos 1666 4.5 22:27:52 20° NW 22:27:52 20° NW 22:29:24 10° NNW
IRS-1C 4.3 22:20:57 10° N 22:26:05 51° WNW 22:26:52 47° WSW
Cosmos 1805 Rocket 3.9 22:26:43 49° WNW 22:26:43 49° WNW 22:30:39 10° N
Cosmos 1515 Rocket 4.2 22:24:47 10° NNW 22:28:03 40° WNW 22:28:03 40° WNW
Cosmos 2233 Rocket 4.5 22:23:41 10° NNW 22:29:13 37° W 22:29:26 36° W
GPS 2-18 Rocket1 4.4 22:30:38 27° SSE 22:30:38 27° SSE 22:33:30 10° E
Cosmos 1315 Rocket 2.6 22:30:09 70° W 22:30:17 71° W 22:34:17 10° N
Cosmos 1666 Rocket 4.2 22:28:50 23° SSE 22:31:22 55° E 22:35:41 10° NNE
Cosmos 2098 Rocket 4.0 22:33:38 22° NNW 22:33:38 22° NNW 22:34:52 10° NNW
Cosmos 389 Rocket 4.2 22:31:21 16° SSE 22:33:30 30° E 22:36:36 10° NNE
Cosmos 2228 Rocket 4.3 22:29:33 10° NNE 22:33:46 41° E 22:38:01 10° SSE
Meteor 2-13 Rocket 4.3 22:30:54 26° S 22:34:33 82° W 22:40:42 10° N
IRIDIUM 114 4.3 22:33:39 42° SW 22:35:08 58° W 22:40:15 10° N
Cosmos 773 Rocket 4.1 22:33:00 28° S 22:35:50 76° ESE 22:41:03 10° NNE
Cosmos 1484 Rocket 2.6 22:33:56 10° NNE 22:37:49 89° ESE 22:38:56 45° S
Sich 1 3.3 22:37:57 44° W 22:38:06 45° W 22:42:13 10° NNW
CZ-2D R/B 3.6 22:36:55 10° N 22:41:02 53° WNW 22:41:57 44° WSW
Aurora 2 Rocket 1.9 22:43:23 52° SSE 22:43:23 52° SSE 22:46:00 10° ESE
Cosmos 1816 Rocket 4.4 22:39:57 19° S 22:44:32 76° W 22:50:41 10° N
ALOS 3.7 22:41:28 10° NNW 22:44:45 21° WNW 22:44:45 21° WNW
CZ-2C R/B 4.4 22:45:32 10° SE 22:50:23 34° ENE 22:55:19 10° NNE
PSLV R/B 4.1 22:47:06 10° NNE 22:51:12 53° E 22:55:15 10° S
Cosmos 1980 3.8 22:50:54 10° NNW 22:56:23 53° WSW 23:01:53 10° S
Cosmos 405 3.5 22:56:17 34° W 22:56:28 34° W 22:59:37 10° NNW
Tsikada Rocket 4.0 22:50:24 10° S 22:56:43 84° W 23:03:00 10° N
Cosmos 1072 Rocket 4.5 22:50:53 10° N 22:57:13 70° W 23:03:29 10° S
Cosmos 371 Rocket 3.7 22:52:36 10° N 22:57:22 66° ENE 23:02:09 10° SSE
Cosmos 1378 2.9 22:54:43 10° N 22:58:24 81° W 23:02:04 10° S
Cosmos 2227 4.2 22:57:34 15° SSW 23:02:21 84° WNW 23:08:04 10° NNE
ARIANE 5 R/B 3.8 23:01:12 10° NNW 23:05:00 22° WNW 23:06:40 19° W
H-2A R/B 3.0 23:02:01 10° NNE 23:05:43 68° E 23:09:28 10° S
SWIFT 2.2 23:04:53 17° W 23:07:58 81° SSW 23:12:07 10° ESE
Cosmos 1707 Rocket 4.1 23:05:18 10° N 23:09:39 60° E 23:14:02 10° SSE
Cosmos 1743 3.3 23:06:22 10° S 23:10:03 56° E 23:13:44 10° NNE
SL-16 R/B 3.4 23:05:03 10° N 23:10:29 46° ENE 23:15:53 10° SE
Spot 4 Rocket 4.4 23:05:44 10° N 23:10:35 45° WNW 23:14:47 14° SW
Cosmos 2298 Rocket 4.2 23:05:54 10° N 23:11:14 81° ENE 23:16:32 10° SSE
Meteor 1-11 Rocket 3.9 23:07:01 10° S 23:12:58 83° E 23:18:56 10° N
YAOGAN 6 3.1 23:13:18 10° N 23:16:37 38° WNW 23:19:09 15° SW
Cosmos 304 Rocket 4.3 23:12:30 10° N 23:17:13 63° ENE 23:21:55 10° SSE
Envisat 3.1 23:14:22 10° N 23:19:19 55° WNW 23:24:15 10° SSW
Meteor 2-4 Rocket 3.7 23:14:05 10° NNW 23:19:41 68° W 23:25:27 10° S
Cosmos 2263 Rocket 3.1 23:17:33 16° WSW 23:21:08 29° WNW 23:25:56 10° N
Cosmos 1818 3.6 23:16:24 10° SSW 23:21:49 85° WNW 23:27:16 10° NNE
Cosmos 1536 2.7 23:20:15 10° S 23:24:14 73° W 23:28:15 10° N
CZ-3 R/B 4.5 22:48:42 10° WNW 23:25:10 34° SW 23:36:20 10° S
CZ-2C R/B 2.8 23:22:03 10° N 23:26:53 88° WNW 23:31:36 10° SSW
CZ-4B R/B 3.6 23:23:02 10° N 23:27:57 55° WNW 23:32:44 10° SSW
IUS R/B (1) 3.1 23:27:22 10° W 23:29:25 35° N 23:33:53 10° ENE
ATLAS CENTAUR R/B 2.9 23:26:44 13° WSW 23:29:44 24° WNW 23:33:30 10° N
Cosmos 1538 Rocket 4.0 23:25:56 10° SSW 23:31:14 82° WNW 23:36:28 10° N
Cosmos 2034 Rocket 4.1 23:26:56 10° NNW 23:32:54 53° W 23:38:51 10° SSW
Cosmos 1346 Rocket 4.3 23:32:14 10° NW 23:34:45 17° W 23:37:17 10° SW
ASTRO E2 3.9 23:31:05 10° NW 23:34:47 41° NNE 23:38:28 10° E
GPS 2-15 Rocket1 3.1 23:32:44 10° WSW 23:37:33 89° SSE 23:42:16 10° E
CZ-2C R/B 4.0 23:34:45 10° NNW 23:38:05 26° WNW 23:41:25 10° SW
SJ-12 3.9 23:34:24 10° N 23:38:29 66° WNW 23:42:33 10° SSW
Cosmos 2237 Rocket 3.4 23:35:21 10° WNW 23:39:17 20° WSW 23:43:15 10° SSW
COSMOS 2455 3.4 23:34:16 10° NW 23:39:42 36° WSW 23:45:06 10° S
CZ-4C R/B 4.1 23:38:18 10° SSE 23:41:04 17° ESE 23:43:58 10° ENE
Meteor 1-31 Rocket 3.6 23:38:54 10° NNE 23:42:41 53° E 23:46:29 10° S
Cosmos 1844 Rocket 3.2 23:39:32 10° S 23:45:05 65° ESE 23:50:37 10° NNE
VEP-3 4.4 23:21:31 10° W 23:50:10 60° N 23:56:42 10° ENE
